.
WxDataArchive / Data Records for 2011-06-26
2011-06-25 June 2011 2011-06-27

Data Records for Sunday, 26 June 2011

Time	Temp	Chill	HIndex	Humid	Dewpt	 Wind 	HiWind	WindDir	Rain 	Barom 
-----	----	-----	------	-----	-----	------	------	-------	-----	----- 
00:00	65.2	65.2	65.2	76	57.4	0	0	---	0.00	29.942 
00:05	65.2	65.2	65.2	77	57.8	0	0	---	0.00	29.942 
00:10	65.2	65.2	65.2	77	57.8	0	0	---	0.00	29.942 
00:15	65.2	65.2	65.2	77	57.8	0	0	---	0.00	29.942 
00:20	65.2	65.2	65.2	77	57.8	0	0	---	0.00	29.942 
00:25	65.2	65.2	65.2	77	57.8	0	0	---	0.00	29.942 
00:30	65.2	65.2	65.2	77	57.8	0	0	---	0.00	29.946 
00:35	65.2	65.2	65.2	76	57.4	0	0	---	0.00	29.946 
00:40	65.2	65.2	65.2	76	57.4	0	0	---	0.00	29.946 
00:45	65.3	65.3	65.3	75	57.2	0	0	---	0.00	29.950 
00:50	65.5	65.5	65.5	74	57.0	0	0	---	0.00	29.950 
00:55	65.6	65.6	65.6	73	56.7	0	0	---	0.00	29.950 
01:00	65.8	65.8	65.8	72	56.5	0	0	---	0.00	29.951 
01:05	65.8	65.8	65.8	71	56.1	0	0	---	0.00	29.951 
01:10	66.0	66.0	66.0	70	55.9	0	0	---	0.00	29.951 
01:15	66.0	66.0	66.0	70	55.9	0	0	---	0.00	29.942 
01:20	66.0	66.0	66.0	70	55.9	0	0	---	0.00	29.942 
01:25	66.0	66.0	66.0	70	55.9	0	0	---	0.00	29.942 
01:30	66.0	66.0	66.0	69	55.5	0	0	---	0.00	29.954 
01:35	66.1	66.1	66.1	69	55.6	0	0	---	0.00	29.954 
01:40	66.1	66.1	66.1	69	55.6	0	0	---	0.00	29.954 
01:45	66.1	66.1	66.1	70	56.0	0	0	---	0.00	29.955 
01:50	66.0	66.0	66.0	70	55.9	0	0	---	0.00	29.955 
01:55	66.0	66.0	66.0	70	55.9	0	0	---	0.00	29.955 
02:00	66.0	66.0	66.0	70	55.9	0	0	---	0.00	29.945 
02:05	65.8	65.8	65.8	72	56.5	0	0	---	0.00	29.945 
02:10	65.6	65.6	65.6	73	56.7	0	0	---	0.00	29.945 
02:15	65.6	65.6	65.6	73	56.7	0	0	---	0.00	29.926 
02:20	65.5	65.5	65.5	72	56.2	0	0	---	0.00	29.926 
02:25	65.5	65.5	65.5	73	56.6	0	0	---	0.00	29.926 
02:30	65.5	65.5	65.5	73	56.6	0	0	---	0.00	29.928 
02:35	65.3	65.3	65.3	73	56.4	0	0	---	0.00	29.928 
02:40	65.3	65.3	65.3	73	56.4	0	0	---	0.00	29.928 
02:45	65.3	65.3	65.3	72	56.0	0	0	---	0.00	29.923 
02:50	65.3	65.3	65.3	72	56.0	0	0	---	0.00	29.923 
02:55	65.3	65.3	65.3	73	56.4	0	0	---	0.00	29.923 
03:00	65.3	65.3	65.3	73	56.4	0	0	---	0.00	29.923 
03:05	65.3	65.3	65.3	73	56.4	0	0	---	0.00	29.923 
03:10	65.2	65.2	65.2	73	56.3	0	0	---	0.00	29.923 
03:15	65.2	65.2	65.2	74	56.7	0	0	---	0.00	29.922 
03:20	65.2	65.2	65.2	75	57.1	0	0	---	0.00	29.922 
03:25	65.0	65.0	65.0	75	56.9	0	0	---	0.00	29.922 
03:30	65.0	65.0	65.0	76	57.2	0	0	---	0.00	29.920 
03:35	64.8	64.8	64.8	77	57.4	0	0	---	0.00	29.920 
03:40	64.8	64.8	64.8	76	57.0	0	0	---	0.00	29.920 
03:45	64.7	64.7	64.7	76	57.0	0	0	---	0.00	29.925 
03:50	64.7	64.7	64.7	77	57.3	0	0	---	0.00	29.925 
03:55	64.5	64.5	64.5	76	56.8	0	0	---	0.00	29.925 
04:00	64.5	64.5	64.5	76	56.8	0	0	---	0.00	29.928 
04:05	64.5	64.5	64.5	76	56.8	0	0	---	0.00	29.928 
04:10	64.5	64.5	64.5	76	56.8	0	0	---	0.00	29.928 
04:15	64.3	64.3	64.3	76	56.6	0	0	---	0.00	29.923 
04:20	64.3	64.3	64.3	76	56.6	0	0	---	0.00	29.923 
04:25	64.3	64.3	64.3	76	56.6	0	0	---	0.00	29.923 
04:30	64.3	64.3	64.3	76	56.6	0	0	---	0.00	29.933 
04:35	64.3	64.3	64.3	77	56.9	0	0	---	0.00	29.933 
04:40	64.3	64.3	64.3	76	56.6	0	0	---	0.00	29.933 
04:45	64.3	64.3	64.3	76	56.6	0	0	---	0.00	29.937 
04:50	64.3	64.3	64.3	77	56.9	0	0	---	0.00	29.937 
04:55	64.3	64.3	64.3	76	56.6	0	0	---	0.00	29.937 
05:00	64.3	64.3	64.3	77	56.9	0	0	---	0.00	29.940 
05:05	64.2	64.2	64.2	77	56.8	0	0	---	0.00	29.940 
05:10	64.2	64.2	64.2	78	57.2	0	0	---	0.00	29.940 
05:15	64.2	64.2	64.2	78	57.2	0	0	---	0.00	29.940 
05:20	64.2	64.2	64.2	78	57.2	0	0	---	0.00	29.940 
05:25	64.2	64.2	64.2	78	57.2	0	0	---	0.00	29.940 
05:30	64.2	64.2	64.2	79	57.5	0	0	---	0.00	29.940 
05:35	64.0	64.0	64.0	78	57.0	0	0	---	0.00	29.940 
05:40	64.2	64.2	64.2	78	57.2	0	0	---	0.00	29.940 
05:45	64.2	64.2	64.2	79	57.5	0	0	---	0.00	29.946 
05:50	64.3	64.3	64.3	79	57.6	0	1	292	0.00	29.946 
05:55	64.3	64.3	64.3	78	57.3	0	1	292	0.00	29.946 
06:00	64.3	64.3	64.3	79	57.6	0	0	---	0.00	29.944 
06:05	64.3	64.3	64.3	79	57.6	0	0	---	0.00	29.944 
06:10	64.2	64.2	64.2	78	57.2	0	1	292	0.00	29.944 
06:15	64.2	64.2	64.2	79	57.5	0	0	---	0.00	29.955 
06:20	64.0	64.0	64.0	78	57.0	0	0	---	0.00	29.955 
06:25	64.0	64.0	64.0	78	57.0	0	0	---	0.00	29.955 
06:30	64.0	64.0	64.0	78	57.0	0	1	292	0.00	29.955 
06:35	64.0	64.0	64.0	78	57.0	0	1	292	0.00	29.955 
06:40	64.0	64.0	64.0	78	57.0	0	1	292	0.00	29.955 
06:45	64.2	64.2	64.2	78	57.2	0	1	292	0.00	29.956 
06:50	64.2	64.2	64.2	79	57.5	0	1	315	0.00	29.956 
06:55	64.2	64.2	64.2	79	57.5	0	1	315	0.00	29.956 
07:00	64.2	64.2	64.2	79	57.5	0	0	---	0.00	29.958 
07:05	64.2	64.2	64.2	79	57.5	0	0	---	0.00	29.958 
07:10	64.2	64.2	64.2	79	57.5	0	0	---	0.00	29.958 
07:15	64.2	64.2	64.2	79	57.5	0	0	---	0.00	29.966 
07:20	64.2	64.2	64.2	79	57.5	0	0	---	0.00	29.966 
07:25	64.2	64.2	64.2	79	57.5	0	0	---	0.00	29.966 
07:30	64.3	64.3	64.3	79	57.6	0	0	---	0.00	29.966 
07:35	64.5	64.5	64.5	78	57.5	0	0	---	0.00	29.966 
07:40	64.7	64.7	64.7	77	57.3	0	0	---	0.00	29.966 
07:45	64.8	64.8	64.8	77	57.4	0	0	---	0.00	29.957 
07:50	65.3	65.3	65.3	77	57.9	0	0	---	0.00	29.957 
07:55	65.6	65.6	65.6	75	57.5	0	1	315	0.00	29.957 
08:00	65.8	65.8	65.8	74	57.3	0	0	---	0.00	29.956 
08:05	66.1	66.1	66.1	73	57.2	0	2	315	0.00	29.956 
08:10	66.4	66.4	66.4	72	57.1	0	1	315	0.00	29.956 
08:15	66.8	66.8	66.8	73	57.9	0	2	315	0.00	29.956 
08:20	67.1	67.1	67.1	72	57.8	0	4	90	0.00	29.956 
08:25	67.6	67.6	67.6	71	57.9	0	2	90	0.00	29.956 
08:30	67.9	67.9	67.9	71	58.1	0	1	90	0.00	29.955 
08:35	68.1	68.1	68.1	69	57.5	0	3	90	0.00	29.955 
08:40	68.1	68.1	68.1	68	57.1	1	3	90	0.00	29.955 
08:45	68.3	68.3	68.3	70	58.1	0	1	90	0.00	29.956 
08:50	68.4	68.4	68.4	71	58.6	0	0	---	0.00	29.956 
08:55	68.4	68.4	68.4	69	57.8	0	0	---	0.00	29.956 
09:00	68.4	68.4	68.4	70	58.2	0	0	---	0.00	29.959 
09:05	68.6	68.6	68.6	70	58.4	0	0	---	0.00	29.959 
09:10	68.6	68.6	68.6	70	58.4	0	0	---	0.00	29.959 
09:15	68.6	68.6	68.6	71	58.8	0	0	---	0.00	29.971 
09:20	68.8	68.8	68.8	70	58.6	0	0	---	0.00	29.971 
09:25	69.1	69.1	69.1	68	58.1	0	0	---	0.00	29.971 
09:30	69.4	69.4	69.4	67	58.0	0	2	90	0.00	29.970 
09:35	69.9	69.9	69.9	68	58.8	0	2	90	0.00	29.970 
09:40	70.4	70.4	70.4	66	58.5	0	2	90	0.00	29.970 
09:45	71.3	71.3	71.3	66	59.3	0	1	90	0.00	29.971 
09:50	71.8	71.8	71.8	64	59.0	1	3	90	0.00	29.971 
09:55	72.1	72.1	72.1	64	59.2	0	2	90	0.00	29.971 
10:00	72.7	72.7	72.7	63	59.4	0	2	90	0.00	29.967 
10:05	73.0	73.0	73.0	63	59.6	1	4	90	0.00	29.967 
10:10	73.2	73.2	73.2	63	59.8	1	4	112	0.00	29.967 
10:15	73.3	73.3	73.3	60	58.6	1	4	112	0.00	29.963 
10:20	73.7	73.7	73.7	62	59.9	1	3	112	0.00	29.963 
10:25	74.4	74.4	74.4	59	59.1	1	3	112	0.00	29.963 
10:30	74.6	74.6	74.6	59	59.3	1	4	112	0.00	29.965 
10:35	75.1	75.1	77.5	57	58.8	1	2	112	0.00	29.965 
10:40	75.6	75.6	77.8	56	58.8	0	3	112	0.00	29.965 
10:45	76.3	76.3	78.3	54	58.4	1	2	112	0.00	29.968 
10:50	76.7	76.7	78.5	54	58.8	1	3	112	0.00	29.968 
10:55	76.7	76.7	78.4	51	57.2	1	4	68	0.00	29.968 
11:00	77.4	77.4	78.9	51	57.8	0	2	68	0.00	29.968 
11:05	78.1	78.1	79.4	51	58.5	0	1	68	0.00	29.968 
11:10	78.3	78.3	79.4	50	58.1	1	4	90	0.00	29.968 
11:15	78.3	78.3	79.3	48	57.0	2	5	90	0.00	29.962 
11:20	77.9	77.9	79.2	50	57.7	1	4	90	0.00	29.962 
11:25	78.1	78.1	79.3	50	57.9	1	3	90	0.00	29.962 
11:30	78.3	78.3	79.4	49	57.5	2	5	90	0.00	29.959 
11:35	78.5	78.5	79.8	53	59.9	1	4	68	0.00	29.959 
11:40	78.8	78.8	79.7	49	58.0	1	4	68	0.00	29.959 
11:45	79.2	79.2	80.0	48	57.8	1	4	90	0.00	29.956 
11:50	79.2	79.2	80.0	48	57.8	2	4	90	0.00	29.956 
11:55	79.4	79.4	80.0	46	56.8	1	5	90	0.00	29.956 
12:00	79.6	79.6	80.1	46	57.0	1	3	90	0.00	29.960 
12:05	79.8	79.8	80.4	47	57.8	0	3	90	0.00	29.960 
12:10	79.4	79.4	80.0	46	56.8	1	3	90	0.00	29.960 
12:15	78.6	78.6	79.4	46	56.1	1	4	90	0.00	29.953 
12:20	78.5	78.5	79.4	47	56.6	1	3	90	0.00	29.953 
12:25	79.0	79.0	79.6	45	55.8	2	5	90	0.00	29.953 
12:30	79.6	79.6	79.9	43	55.1	2	7	90	0.00	29.956 
12:35	79.0	79.0	79.6	45	55.8	0	2	90	0.00	29.956 
12:40	78.6	78.6	79.6	49	57.8	1	3	90	0.00	29.956 
12:45	78.8	78.8	79.5	45	55.6	1	4	90	0.00	29.965 
12:50	78.6	78.6	79.5	48	57.2	1	4	90	0.00	29.965 
12:55	78.8	78.8	79.4	43	54.4	1	3	90	0.00	29.965 
13:00	78.8	78.8	79.6	47	56.8	2	6	112	0.00	29.958 
13:05	78.8	78.8	79.8	50	58.6	1	7	90	0.00	29.958 
13:10	79.2	79.2	79.8	46	56.6	0	1	90	0.00	29.958 
13:15	79.8	79.8	80.0	43	55.3	1	3	158	0.00	29.963 
13:20	80.3	80.3	80.3	42	55.1	1	3	135	0.00	29.963 
13:25	81.1	81.1	81.1	44	57.1	1	3	112	0.00	29.963 
13:30	81.4	81.4	81.2	42	56.1	2	6	112	0.00	29.958 
13:35	81.1	81.1	81.1	44	57.1	2	5	90	0.00	29.958 
13:40	81.4	81.4	81.5	45	58.0	1	4	90	0.00	29.958 
13:45	81.6	81.6	81.3	42	56.3	1	4	112	0.00	29.951 
13:50	80.9	80.9	80.8	42	55.6	1	6	90	0.00	29.951 
13:55	79.9	79.9	80.2	44	56.0	0	2	90	0.00	29.951 
14:00	79.9	79.9	80.2	44	56.0	1	5	90	0.00	29.957 
14:05	80.3	80.3	80.4	43	55.7	2	5	90	0.00	29.957 
14:10	80.5	80.5	80.4	41	54.6	1	4	90	0.00	29.957 
14:15	81.1	81.1	80.9	42	55.8	0	2	90	0.00	29.954 
14:20	81.8	81.8	82.0	46	59.0	0	2	90	0.00	29.954 
14:25	81.8	81.8	81.2	39	54.4	1	3	90	0.00	29.954 
14:30	81.2	81.2	80.7	39	53.9	0	4	90	0.00	29.952 
14:35	80.7	80.7	80.5	41	54.8	1	4	90	0.00	29.952 
14:40	80.9	80.9	81.3	47	58.8	0	2	90	0.00	29.952 
14:45	81.1	81.1	81.0	43	56.5	0	2	90	0.00	29.949 
14:50	80.7	80.7	80.5	41	54.8	1	4	90	0.00	29.949 
14:55	80.1	80.1	80.3	43	55.6	1	3	90	0.00	29.949 
15:00	79.8	79.8	80.3	46	57.2	0	2	90	0.00	29.949 
15:05	80.5	80.5	80.6	43	55.9	1	3	90	0.00	29.949 
15:10	80.7	80.7	80.4	40	54.1	1	4	112	0.00	29.949 
15:15	81.1	81.1	80.7	40	54.5	1	4	112	0.00	29.942 
15:20	81.4	81.4	81.0	40	54.7	0	2	90	0.00	29.942 
15:25	82.0	82.0	81.3	39	54.6	0	2	112	0.00	29.942 
15:30	82.6	82.6	82.1	41	56.5	1	5	112	0.00	29.936 
15:35	82.0	82.0	81.2	38	53.9	3	6	90	0.00	29.936 
15:40	81.4	81.4	81.2	42	56.1	2	9	90	0.00	29.936 
15:45	81.6	81.6	81.2	41	55.6	1	3	135	0.00	29.932 
15:50	82.4	82.4	81.6	38	54.2	1	3	112	0.00	29.932 
15:55	82.8	82.8	82.0	39	55.3	1	2	112	0.00	29.932 
16:00	83.0	83.0	82.6	42	57.5	0	2	112	0.00	29.928 
16:05	83.2	83.2	82.3	38	54.9	2	5	90	0.00	29.928 
16:10	82.4	82.4	81.7	39	54.9	1	5	112	0.00	29.928 
16:15	81.8	81.8	81.2	39	54.4	0	2	112	0.00	29.928 
16:20	81.4	81.4	81.0	40	54.7	0	1	112	0.00	29.928 
16:25	81.8	81.8	81.0	37	53.0	1	4	112	0.00	29.928 
16:30	82.4	82.4	81.9	41	56.3	1	4	112	0.00	29.929 
16:35	82.6	82.6	81.8	39	55.1	1	3	112	0.00	29.929 
16:40	82.0	82.0	81.0	36	52.4	1	3	112	0.00	29.929 
16:45	81.6	81.6	80.7	36	52.0	0	2	112	0.00	29.931 
16:50	81.6	81.6	81.0	39	54.2	1	4	112	0.00	29.931 
16:55	82.2	82.2	81.6	40	55.4	1	6	112	0.00	29.931 
17:00	82.4	82.4	81.6	38	54.2	2	6	68	0.00	29.931 
17:05	82.4	82.4	81.4	37	53.5	1	4	68	0.00	29.931 
17:10	82.8	82.8	81.9	38	54.6	1	4	135	0.00	29.931 
17:15	83.2	83.2	82.3	38	54.9	1	3	112	0.00	29.924 
17:20	83.4	83.4	81.7	32	50.4	1	3	112	0.00	29.924 
17:25	83.6	83.6	82.1	34	52.2	1	3	0	0.00	29.924 
17:30	83.8	83.8	82.5	36	54.0	1	3	0	0.00	29.927 
17:35	83.8	83.8	82.8	38	55.5	1	3	90	0.00	29.927 
17:40	83.6	83.6	82.8	39	56.0	1	4	135	0.00	29.927 
17:45	83.4	83.4	81.9	34	52.1	2	4	68	0.00	29.927 
17:50	82.4	82.4	81.3	36	52.7	2	4	68	0.00	29.927 
17:55	81.6	81.6	80.6	35	51.3	0	2	68	0.00	29.927 
18:00	81.2	81.2	80.4	36	51.7	0	2	68	0.00	29.929 
18:05	81.1	81.1	80.2	34	50.0	0	1	68	0.00	29.929 
18:10	81.2	81.2	80.4	36	51.7	0	3	68	0.00	29.929 
18:15	81.6	81.6	80.7	36	52.0	1	4	112	0.00	29.932 
18:20	81.2	81.2	80.5	37	52.4	1	3	112	0.00	29.932 
18:25	80.7	80.7	80.2	37	52.0	0	2	112	0.00	29.932 
18:30	80.5	80.5	80.0	37	51.8	0	0	---	0.00	29.931 
18:35	80.5	80.5	80.1	38	52.5	0	1	112	0.00	29.931 
18:40	80.7	80.7	80.2	37	52.0	0	1	112	0.00	29.931 
18:45	81.1	81.1	80.4	36	51.6	0	2	112	0.00	29.928 
18:50	81.2	81.2	80.4	36	51.7	1	3	112	0.00	29.928 
18:55	81.4	81.4	80.6	36	51.9	1	3	112	0.00	29.928 
19:00	81.4	81.4	80.9	39	54.0	0	3	112	0.00	29.922 
19:05	81.2	81.2	80.6	38	53.1	1	2	112	0.00	29.922 
19:10	81.1	81.1	80.4	37	52.3	2	4	68	0.00	29.922 
19:15	80.9	80.9	80.5	39	53.6	1	4	90	0.00	29.919 
19:20	80.5	80.5	80.1	38	52.5	2	4	68	0.00	29.919 
19:25	80.3	80.3	80.1	40	53.8	0	3	90	0.00	29.919 
19:30	80.1	80.1	80.0	40	53.6	0	2	90	0.00	29.931 
19:35	80.1	80.1	79.8	38	52.2	0	2	90	0.00	29.931 
19:40	80.1	80.1	79.9	39	52.9	0	1	90	0.00	29.931 
19:45	80.1	80.1	79.9	39	52.9	0	1	90	0.00	29.934 
19:50	80.1	80.1	79.9	39	52.9	0	1	90	0.00	29.934 
19:55	80.1	80.1	79.9	39	52.9	0	1	90	0.00	29.934 
20:00	79.9	79.9	79.9	40	53.4	0	1	90	0.00	29.933 
20:05	79.9	79.9	79.9	41	54.1	0	3	90	0.00	29.933 
20:10	79.8	79.8	79.8	40	53.3	0	3	90	0.00	29.933 
20:15	79.6	79.6	79.7	41	53.8	0	2	90	0.00	29.932 
20:20	79.6	79.6	79.7	41	53.8	0	1	90	0.00	29.932 
20:25	79.4	79.4	79.7	42	54.3	0	2	90	0.00	29.932 
20:30	79.2	79.2	79.5	42	54.1	0	1	90	0.00	29.933 
20:35	79.0	79.0	79.5	43	54.6	0	2	90	0.00	29.933 
20:40	78.8	78.8	79.5	45	55.6	0	1	90	0.00	29.933 
20:45	78.5	78.5	79.4	46	56.0	0	2	90	0.00	29.925 
20:50	78.1	78.1	79.2	47	56.2	0	1	112	0.00	29.925 
20:55	77.7	77.7	79.0	49	57.0	0	2	112	0.00	29.925 
21:00	77.4	77.4	78.8	50	57.3	0	1	112	0.00	29.933 
21:05	77.0	77.0	78.7	52	58.0	0	0	---	0.00	29.933 
21:10	76.5	76.5	78.4	53	58.1	0	0	---	0.00	29.933 
21:15	76.1	76.1	78.1	54	58.2	0	1	112	0.00	29.936 
21:20	75.8	75.8	78.0	55	58.5	0	1	112	0.00	29.936 
21:25	75.3	75.3	77.7	56	58.5	0	0	---	0.00	29.936 
21:30	74.9	74.9	74.9	57	58.6	0	0	---	0.00	29.937 
21:35	74.6	74.6	74.6	58	58.8	0	0	---	0.00	29.937 
21:40	74.4	74.4	74.4	58	58.6	0	0	---	0.00	29.937 
21:45	74.0	74.0	74.0	58	58.3	0	1	112	0.00	29.941 
21:50	73.9	73.9	73.9	59	58.7	0	0	---	0.00	29.941 
21:55	73.5	73.5	73.5	59	58.3	0	0	---	0.00	29.941 
22:00	73.3	73.3	73.3	60	58.6	0	0	---	0.00	29.947 
22:05	73.0	73.0	73.0	61	58.7	0	0	---	0.00	29.947 
22:10	72.7	72.7	72.7	62	58.9	0	0	---	0.00	29.947 
22:15	72.3	72.3	72.3	62	58.5	0	0	---	0.00	29.952 
22:20	72.1	72.1	72.1	63	58.8	0	0	---	0.00	29.952 
22:25	71.6	71.6	71.6	64	58.8	0	0	---	0.00	29.952 
22:30	71.3	71.3	71.3	64	58.5	0	0	---	0.00	29.958 
22:35	71.1	71.1	71.1	65	58.7	0	0	---	0.00	29.958 
22:40	70.8	70.8	70.8	65	58.4	0	0	---	0.00	29.958 
22:45	70.6	70.6	70.6	66	58.7	0	0	---	0.00	29.953 
22:50	70.3	70.3	70.3	67	58.8	0	0	---	0.00	29.953 
22:55	69.9	69.9	69.9	68	58.8	0	0	---	0.00	29.953 
23:00	69.9	69.9	69.9	69	59.3	0	0	---	0.00	29.963 
23:05	69.8	69.8	69.8	69	59.2	0	0	---	0.00	29.963 
23:10	69.6	69.6	69.6	69	59.0	0	0	---	0.00	29.963 
23:15	69.4	69.4	69.4	70	59.2	0	0	---	0.00	29.960 
23:20	69.3	69.3	69.3	70	59.1	0	0	---	0.00	29.960 
23:25	69.1	69.1	69.1	70	58.9	0	0	---	0.00	29.960 
23:30	68.9	68.9	68.9	72	59.5	0	0	---	0.00	29.964 
23:35	68.6	68.6	68.6	72	59.2	0	0	---	0.00	29.964 
23:40	68.4	68.4	68.4	73	59.4	0	0	---	0.00	29.964 
23:45	68.1	68.1	68.1	74	59.5	0	0	---	0.00	29.964 
23:50	67.8	67.8	67.8	74	59.2	0	0	---	0.00	29.964 
23:55	67.4	67.4	67.4	76	59.6	0	0	---	0.00	29.964 

CoCoRaHS
IN-AL-39
A2 Web Hosting
Creative Commons License
GoDaddy
search engine by freefind advanced

loaded 2018-11-14 04:48:38 • last modified 2010-11-18 10:43:29
Privacy PolicyDisclaimer
• wx.awcolley.com is powered by PmWiki v.2002016 •
• all content (unless otherwise noted) © 2018 A W Colley